Location: Dumpton Point
(51.3500°N, 1.4433°E)
Time: 04:24:41
(UTC+00:00)

Altair - Pass Details

Date: 03 October 2022
Orbit: 1501 x 1682 km, 47.2° (Epoch: 26 November)

Event Time Altitude Azimuth Distance (km) Brightness Sun altitude
Rises 06:34:04 0° 249° (WSW) 4,805 9.6 4.7°
Reaches altitude 10° 06:37:09 10° 247° (WSW) 3,843 9.1 5.2°
Maximum altitude 06:46:53 67° 168° (SSE) 1,776 8.2 6.7°
Drops below altitude 10° 06:56:53 10° 89° (E) 3,945 11.4 8.2°
Sets 07:00:06 0° 87° (E) 4,937 11.7 8.7°
